Kaltag, AK

10:52 PM AKDT on August 18, 2017 (GMT -0800)
Kaltag

Weather History for PAKV - October, 2013

Change the Weather History Date:

Friday, October 11, 2013

  Actual Average (PAGA) Record (PAGA)
Temperature  
Mean Temperature 40 °F -  
Max Temperature 46 °F 32 °F 50 °F (1969)
Min Temperature 35 °F 21 °F -3 °F (1974)
Degree Days  
Heating Degree Days 25    
Moisture  
Dew Point 39 °F    
Average Humidity 90    
Maximum Humidity 100    
Minimum Humidity 76    
Precipitation  
Precipitation 0.14 in - - ()
Sea Level Pressure  
Sea Level Pressure 29.61 in    
Wind  
Wind Speed 1 mph (South)    
Max Wind Speed 7 mph    
Max Gust Speed -    
Visibility 8 miles    
Events Rain    
Averages and records for this station are not official NWS values.
T = Trace of Precipitation, MM = Missing Value Source: NWS Daily Summary

Daily Weather History Graph

Daily Weather History Graph

Search for Another Location

Airport or City:

Trip Planner

Search our weather history database for the weather conditions in past years. The results will help you decide how hot, cold, wet, or windy it might be!

Date:

Astronomy

Oct. 11, 2013 Rise Set
Actual Time 9:15 AM AKDT 7:26 PM AKDT
Civil Twilight 8:26 AM AKDT 8:14 PM AKDT
Nautical Twilight 7:30 AM AKDT 9:10 PM AKDT
Astronomical Twilight 6:33 AM AKDT 10:07 PM AKDT
Moon 5:14 PM AKDT (10/11) No Moon Set
Length of Visible Light 11h 48m
Length of Day
10h 11m
Waxing Crescent, 49% of the Moon is Illuminated
Oct 11
Waxing Crescent
Oct 11
First Quarter
Oct 18
Full
Oct 26
Last Quarter
Nov 3
New

Hourly Weather History & Observations

Time (AKDT) Temp. Windchill Dew Point Humidity Pressure Visibility Wind Dir Wind Speed Gust Speed Precip Events Conditions
12:41 AM 41.0 °F - 39.2 °F 93% 29.49 in 10.0 mi Calm Calm - 0.00 in Rain Light Rain
12:53 AM 39.9 °F - 39.0 °F 97% 29.50 in 10.0 mi Calm Calm - 0.00 in Rain Light Rain
1:23 AM 41.0 °F - 39.2 °F 93% 29.49 in 10.0 mi Calm Calm - 0.00 in Rain Light Rain
1:53 AM 41.0 °F - 39.9 °F 96% 29.51 in 8.0 mi Calm Calm - 0.01 in Rain Light Rain
2:38 AM 42.8 °F - 39.2 °F 87% 29.50 in 10.0 mi Calm Calm - 0.01 in Rain Light Rain
2:51 AM 42.8 °F - 39.2 °F 87% 29.50 in 10.0 mi Calm Calm - 0.01 in Rain Light Rain
2:53 AM 42.1 °F - 39.9 °F 92% 29.51 in 10.0 mi Calm Calm - 0.01 in Rain Light Rain
3:53 AM 42.1 °F - 39.9 °F 92% 29.52 in 10.0 mi Calm Calm - 0.01 in Rain Light Rain
4:05 AM 42.8 °F - 39.2 °F 87% 29.51 in 6.0 mi Calm Calm - 0.01 in Rain Light Rain
4:53 AM 42.1 °F 40.2 °F 39.9 °F 92% 29.54 in 8.0 mi South 3.5 mph - 0.04 in Rain Light Rain
5:21 AM 42.8 °F - 39.2 °F 87% 29.53 in 10.0 mi Calm Calm - 0.00 in Rain Light Rain
5:48 AM 42.8 °F 41.1 °F 39.2 °F 87% 29.54 in 10.0 mi South 3.5 mph - 0.00 in Rain Light Rain
5:53 AM 42.1 °F 39.2 °F 39.9 °F 92% 29.55 in 10.0 mi Variable 4.6 mph - 0.00 in Rain Light Rain
6:53 AM 42.1 °F 40.2 °F 39.9 °F 92% 29.56 in 8.0 mi Variable 3.5 mph - 0.01 in Rain Light Rain
7:53 AM 42.1 °F 40.2 °F 39.9 °F 92% 29.57 in 5.0 mi Variable 3.5 mph - 0.00 in Rain Light Rain
8:53 AM 42.1 °F - 39.9 °F 92% 29.59 in 5.0 mi Calm Calm - 0.02 in Rain Light Rain
9:48 AM 42.8 °F - 39.2 °F 87% 29.60 in 2.5 mi Calm Calm - 0.01 in Rain Light Rain
9:53 AM 42.1 °F - 39.9 °F 92% 29.61 in 4.0 mi Calm Calm - 0.01 in Rain Light Rain
10:08 AM 42.8 °F 41.1 °F 39.2 °F 87% 29.61 in 2.5 mi Variable 3.5 mph - 0.00 in Rain Light Rain
10:17 AM 42.8 °F 41.1 °F 39.2 °F 87% 29.61 in 3.0 mi Variable 3.5 mph - 0.00 in Rain Light Rain
10:53 AM 42.1 °F - 41.0 °F 96% 29.64 in 6.0 mi Calm Calm - 0.01 in Rain Light Rain
11:12 AM 42.8 °F - 39.2 °F 87% 29.63 in 2.0 mi Calm Calm - 0.00 in Rain Light Rain
11:34 AM 42.8 °F - 41.0 °F 93% 29.64 in 4.0 mi Calm Calm - 0.00 in Rain Light Rain
11:40 AM 42.8 °F - 41.0 °F 93% 29.64 in 5.0 mi Calm Calm - 0.00 in Rain Light Rain
11:50 AM 42.8 °F 41.1 °F 41.0 °F 93% 29.64 in 9.0 mi Variable 3.5 mph - 0.00 in Rain Light Rain
11:53 AM 43.0 °F - 41.0 °F 93% 29.65 in 9.0 mi Calm Calm - 0.00 in Rain Light Rain
12:07 PM 42.8 °F 41.1 °F 41.0 °F 93% 29.65 in 2.5 mi Variable 3.5 mph - 0.00 in Rain Light Rain
12:18 PM 42.8 °F 41.1 °F 41.0 °F 93% 29.65 in 2.0 mi Variable 3.5 mph - 0.01 in Rain Light Rain
12:27 PM 42.8 °F 40.1 °F 41.0 °F 93% 29.65 in 8.0 mi Variable 4.6 mph - 0.01 in Rain Light Rain
1:00 PM 42.8 °F 38.6 °F 41.0 °F 93% 29.66 in 10.0 mi SSW 6.9 mph - 0.00 in Rain Light Rain
1:08 PM 44.6 °F 42.2 °F 39.2 °F 81% 29.67 in 10.0 mi Variable 4.6 mph - 0.00 in Rain Light Rain
1:53 PM 44.1 °F 40.8 °F 39.9 °F 85% 29.69 in 10.0 mi SSW 5.8 mph - 0.00 in Rain Light Rain
2:11 PM 44.6 °F 41.4 °F 39.2 °F 81% 29.68 in 10.0 mi South 5.8 mph - 0.00 in Rain Light Rain
2:53 PM 45.0 °F 43.5 °F 39.0 °F 80% 29.69 in 10.0 mi Variable 3.5 mph - 0.00 in   Partly Cloudy
3:53 PM 45.0 °F 43.5 °F 37.9 °F 76% 29.70 in 10.0 mi South 3.5 mph - 0.00 in   Scattered Clouds
4:53 PM 45.0 °F 43.5 °F 37.9 °F 76% 29.69 in 10.0 mi Variable 3.5 mph - N/A   Mostly Cloudy
5:53 PM 44.1 °F - 37.9 °F 79% 29.69 in 10.0 mi Calm Calm - N/A   Overcast
6:53 PM 42.1 °F - 39.0 °F 89% 29.69 in 10.0 mi Calm Calm - N/A   Overcast
7:53 PM 37.9 °F - 36.0 °F 93% 29.69 in 10.0 mi Calm Calm - N/A   Overcast
8:46 PM 39.2 °F - 37.4 °F 93% 29.67 in 10.0 mi Calm Calm - N/A   Overcast
8:53 PM 39.0 °F - 37.0 °F 93% 29.68 in 10.0 mi Calm Calm - N/A   Overcast
9:53 PM 37.0 °F - 35.1 °F 93% 29.69 in 7.0 mi Calm Calm - N/A   Overcast
10:15 PM 35.6 °F - 35.6 °F 100% 29.67 in 10.0 mi Calm Calm - N/A   Overcast
10:53 PM 37.9 °F - 36.0 °F 93% 29.68 in 10.0 mi Calm Calm - 0.00 in Rain Light Rain
11:12 PM 37.4 °F - 37.4 °F 100% 29.67 in 7.0 mi Calm Calm - 0.01 in Rain Light Rain
11:21 PM 39.2 °F - 37.4 °F 93% 29.67 in 7.0 mi Calm Calm - 0.01 in Rain Light Rain
11:53 PM 39.9 °F - 37.9 °F 93% 29.67 in 6.0 mi Calm Calm - 0.02 in Rain Light Rain